TimeEST,TemperatureF,Dew PointF,Humidity,Sea Level PressureIn,VisibilityMPH,Wind Direction,Wind SpeedMPH,Gust SpeedMPH,PrecipitationIn,Events,Conditions,WindDirDegrees,DateUTC
12:22 AM,32.0,32.0,100,29.83,1.2,Calm,Calm,-,0.00,Snow,Light Snow,0,2012-12-29 05:22:00
12:32 AM,32.0,32.0,100,29.82,1.5,NNE,3.5,-,0.00,Snow,Light Snow,30,2012-12-29 05:32:00
12:53 AM,32.0,32.0,100,29.81,1.8,NE,3.5,-,0.00,Snow,Light Snow,50,2012-12-29 05:53:00
1:07 AM,32.0,32.0,100,29.78,2.0,NE,4.6,-,0.00,Snow,Light Snow,50,2012-12-29 06:07:00
1:53 AM,32.0,32.0,100,29.79,1.5,Calm,Calm,-,0.00,Snow,Light Snow,0,2012-12-29 06:53:00
2:06 AM,32.0,32.0,100,29.77,1.2,NE,3.5,-,0.00,Snow,Light Snow,40,2012-12-29 07:06:00
2:53 AM,32.0,32.0,100,29.78,1.0,North,3.5,-,0.00,Snow,Light Snow,10,2012-12-29 07:53:00
3:11 AM,32.0,32.0,100,29.77,1.2,North,3.5,-,0.00,Snow,Light Snow,360,2012-12-29 08:11:00
3:26 AM,32.0,32.0,100,29.76,1.5,North,3.5,-,0.00,Snow,Light Snow,10,2012-12-29 08:26:00
3:53 AM,32.0,32.0,100,29.77,0.8,Calm,Calm,-,0.00,Snow,Light Snow,0,2012-12-29 08:53:00
4:19 AM,32.0,32.0,100,29.74,1.0,North,3.5,-,0.00,Snow,Light Snow,10,2012-12-29 09:19:00
4:53 AM,32.0,32.0,100,29.76,1.0,Calm,Calm,-,0.00,Snow,Light Snow,0,2012-12-29 09:53:00
5:09 AM,32.0,32.0,100,29.75,1.0,Calm,Calm,-,0.00,Snow,Light Snow,0,2012-12-29 10:09:00
5:20 AM,32.0,30.2,93,29.74,0.8,North,4.6,-,0.00,Snow,Light Snow,350,2012-12-29 10:20:00
5:28 AM,32.0,30.2,93,29.75,0.8,North,4.6,-,0.00,Snow,Light Snow,350,2012-12-29 10:28:00
5:35 AM,32.0,30.2,93,29.75,1.0,North,6.9,-,0.00,Snow,Light Snow,350,2012-12-29 10:35:00
5:53 AM,32.0,30.9,96,29.77,0.8,NNW,5.8,-,0.01,Snow,Light Snow,340,2012-12-29 10:53:00
6:07 AM,30.2,30.2,100,29.76,1.2,NNW,8.1,-,0.00,Snow,Light Snow,340,2012-12-29 11:07:00
6:25 AM,30.2,30.2,100,29.76,1.8,NNW,5.8,-,0.00,Snow,Light Snow,340,2012-12-29 11:25:00
6:38 AM,30.2,30.2,100,29.77,2.5,NNW,3.5,-,0.00,Snow,Light Snow,330,2012-12-29 11:38:00
6:48 AM,30.2,30.2,100,29.77,3.0,NNW,6.9,-,0.00,Snow,Light Snow,340,2012-12-29 11:48:00
6:53 AM,30.9,30.0,96,29.78,2.5,NNW,4.6,-,0.00,Snow,Light Snow,340,2012-12-29 11:53:00
7:15 AM,30.2,30.2,100,29.78,3.0,WNW,4.6,-,0.00,Snow,Light Snow,300,2012-12-29 12:15:00
7:30 AM,30.2,30.2,100,29.79,2.0,NW,5.8,-,0.00,Snow,Light Snow,320,2012-12-29 12:30:00
7:38 AM,30.2,30.2,100,29.79,2.0,NW,4.6,-,0.00,Snow,Light Snow,320,2012-12-29 12:38:00
7:46 AM,30.2,30.2,100,29.79,1.8,WNW,3.5,-,0.00,Snow,Light Snow,300,2012-12-29 12:46:00
7:53 AM,30.9,30.0,96,29.81,2.0,Calm,Calm,-,0.00,Snow,Light Snow,0,2012-12-29 12:53:00
8:50 AM,30.2,28.4,93,29.82,5.0,West,8.1,-,0.00,,Overcast,280,2012-12-29 13:50:00
8:53 AM,30.0,28.0,92,29.83,5.0,WNW,6.9,-,0.00,,Mostly Cloudy,300,2012-12-29 13:53:00
9:53 AM,30.9,28.0,89,29.88,7.0,West,8.1,-,N/A,,Overcast,280,2012-12-29 14:53:00
10:53 AM,30.9,28.0,89,29.92,5.0,WNW,6.9,-,N/A,,Overcast,300,2012-12-29 15:53:00
11:53 AM,30.9,27.0,85,29.94,6.0,WNW,4.6,-,N/A,,Overcast,300,2012-12-29 16:53:00
12:53 PM,30.9,26.1,82,29.93,7.0,West,8.1,18.4,N/A,,Overcast,280,2012-12-29 17:53:00
1:53 PM,32.0,27.0,82,29.94,7.0,West,12.7,-,N/A,,Overcast,280,2012-12-29 18:53:00
2:53 PM,32.0,27.0,82,29.96,5.0,West,9.2,-,N/A,,Haze,280,2012-12-29 19:53:00
3:45 PM,32.0,28.4,87,29.97,2.5,West,9.2,-,0.00,Snow,Light Snow,280,2012-12-29 20:45:00
3:53 PM,32.0,28.0,85,29.99,2.5,West,9.2,-,0.00,Snow,Light Snow,270,2012-12-29 20:53:00
3:58 PM,32.0,28.4,87,29.98,3.0,West,9.2,-,0.00,Snow,Light Snow,270,2012-12-29 20:58:00
4:49 PM,33.8,28.4,81,29.99,6.0,West,15.0,21.9,0.00,Snow,Light Snow,260,2012-12-29 21:49:00
4:53 PM,33.1,28.0,82,30.01,5.0,West,16.1,21.9,0.00,Snow,Light Snow,270,2012-12-29 21:53:00
5:11 PM,33.8,26.6,75,30.01,5.0,WNW,16.1,21.9,0.00,Snow,Light Snow,290,2012-12-29 22:11:00
5:34 PM,32.0,28.4,87,30.03,3.0,WNW,9.2,-,0.00,Snow,Light Snow,290,2012-12-29 22:34:00
5:53 PM,30.2,26.6,86,30.04,3.0,West,17.3,20.7,N/A,Snow,Light Snow,270,2012-12-29 22:53:00
6:53 PM,30.0,25.0,82,30.09,5.0,West,8.1,-,0.00,Snow,Light Snow,280,2012-12-29 23:53:00
7:53 PM,30.0,24.1,79,30.13,5.0,West,17.3,27.6,0.00,Snow,Light Snow,270,2012-12-30 00:53:00
8:53 PM,28.9,23.0,78,30.16,10.0,West,12.7,21.9,0.00,,Overcast,280,2012-12-30 01:53:00
9:53 PM,28.0,19.9,72,30.20,10.0,WNW,17.3,24.2,N/A,,Overcast,290,2012-12-30 02:53:00
10:53 PM,27.0,19.9,75,30.22,10.0,West,10.4,-,N/A,,Overcast,280,2012-12-30 03:53:00
11:07 PM,26.6,19.4,74,30.22,10.0,West,13.8,18.4,N/A,,Overcast,270,2012-12-30 04:07:00
11:53 PM,27.0,19.9,75,30.26,10.0,West,11.5,-,N/A,,Overcast,270,2012-12-30 04:53:00